Regional Weather Roundup
Issued by NWS

Home | Current Version | Previous Version | Text Only | Print | Product List | Glossary Off
Versions: 1 2 3 4 5 6 7 8 9 10 11 12 13 14 15 16 17 18 19 20 21 22 23 24 25 26 27 28 29 30 31 32 33 34 35 36 37 38 39 40 41 42 43 44 45 46 47 48 49 50

540
ASUS44 KJAN 312003
RWRMS

MISSISSIPPI HOURLY WEATHER ROUNDUP
NATIONAL WEATHER SERVICE JACKSON MS
200 PM CST SAT JAN 31 2015

NOTE: "FAIR: INDICATES FEW OR NO CLOUDS BELOW 12,000 FEET WITH NO
SIGNIFICANT WEATHER AND/OR OBSTRUCTIONS TO VISIBILITY.

MSZ001>002-007>008-010>013-018>021-025>028-034>036-312100-
NORTHWEST MISSISSIPPI

CITY           SKY/WX    TMP DP  RH WIND       PRES   REMARKS
CLARKSDALE     CLOUDY    46  28  49 E5        30.26F
CLEVELAND      FAIR      52  30  43 NE5       30.23F
GREENWOOD      CLOUDY    61  21  21 E8        30.22F
GREENVILLE     MOSUNNY   56  27  32 SE5       30.22F
GRENADA        FAIR      50  27  40 E7        30.25F
OLIVE BRANCH   CLOUDY    43  27  52 SE6       30.26F
OXFORD         FAIR      48  23  37 SE6       30.27F
TUNICA         CLOUDY    46  28  49 NE3       30.27F
$$

MSZ003>006-009-014>017-022>024-029>033-037>039-312100-
NORTHEAST MISSISSIPPI

CITY           SKY/WX    TMP DP  RH WIND       PRES   REMARKS
COLUMBUS AFB   MOSUNNY   60  13  16 VRB5      30.25F
CORINTH        MOCLDY    48  23  37 CALM      30.27F
GOLDN TRIANGLE MOSUNNY   57  23  26 SE10      30.26F
STARKVILLE     FAIR      55  23  28 E5        30.25F
TUPELO         CLOUDY    53  19  26 SE6       30.26F
$$

MSZ040-058-312100-
CENTRAL MISSISSIPPI

CITY           SKY/WX    TMP DP  RH WIND       PRES   REMARKS
JACKSON INTL   PTSUNNY   58  24  27 E8        30.21F
JACKSON HAWKNS PTSUNNY   57  24  28 E6        30.21F
MERIDIAN KEY   MOSUNNY   60  16  18 SE9       30.25F
MERIDIAN NAS   SUNNY     58  18  21 VRB6      30.26F
RAYMOND        FAIR      59  54  82 E6        30.20F
VICKSBURG      PTSUNNY   58  28  32 E6        30.21F
$$

MSZ059>079-312100-
SOUTH MISSISSIPPI

CITY           SKY/WX    TMP DP  RH WIND       PRES   REMARKS
BROOKHAVEN     FAIR      59  28  31 SE3       30.22F
HATTIESBURG    MOSUNNY   62  27  26 CALM      30.25F
MCCOMB         MOSUNNY   60  32  34 S8        30.22F
NATCHEZ        CLOUDY    61  28  29 SE9       30.21F
PINE BELT      SUNNY     59  27  29 SE3       30.26F
$$

MSZ080>082-312100-
COASTAL MISSISSIPPI

CITY           SKY/WX    TMP DP  RH WIND       PRES   REMARKS
BAY ST LOUIS   SUNNY     61  41  48 SE9G18    30.24F
BILOXI         MOSUNNY   61  45  55 SE13      30.24F
PASCAGOULA     MOSUNNY   60  42  51 SE12      30.26F
GULFPORT       MOSUNNY   59  44  57 E18       30.24F
$$



USA.gov is the U.S. government's official web portal to all federal, state and local government web resources and services.